World > North America > United States > North Carolina

Autryville, North Carolina Regional Weather

Lat: 35.00N, Lon: 78.64W
Wx Zone: NCZ089
Feedback

Autryville, NC Regional Weather

Expires:201909160300;;854988
ASUS42 KMHX 160225
RWRMHX
WEATHER ROUNDUP FOR EASTERN NORTH CAROLINA
NATIONAL WEATHER SERVICE NEWPORT/MOREHEAD CITY NC
1000 PM EDT SUN SEP 15 2019

NOTE: "FAIR" INDICATES FEW OR NO CLOUDS BELOW 12,000 FEET
WITH NO SIGNIFICANT WEATHER AND/OR OBSTRUCTIONS TO VISIBILITY


NCZ011>013-027>030-043-044-078>080-089-090>093-098-160300-
COASTAL PLAIN
  
CITY           SKY/WX    TMP DP  RH WIND       PRES   REMARKS
AHOSKIE        NOT AVBL                                               
CLINTON        MOCLDY    78  73  85 CALM      30.07S                  
ELIZABETHTOWN  FAIR      76  73  88 E3        30.07R                  
GOLDSBORO      NOT AVBL                                               
GREENVILLE     FAIR      77  73  88 E3        30.09F                  
HAVELOCK       RAIN      77  72  84 E3        30.08S                  
KENANSVILLE    MOCLDY    75 N/A N/A CALM      30.07S FOG              
KINSTON        CLOUDY    76  75  96 CALM      30.09R                  
NEW BERN       CLOUDY    78  75  90 E3        30.08S                  
RICHLANDS      FAIR      73  71  93 CALM      30.07S                  
ROCKY MOUNT    FAIR      78  72  81 E5        30.08S                  
WASHINGTON     FAIR      75  73  93 CALM      30.09S                  
WHITEVILLE     CLOUDY    79  74  84 CALM      30.06R                  

$$


SKY/WX - Weather  TMP - Temperature  DP - Dew Point  RH - Relative Humidity
WIND - Wind Direction/Speed PRES - Barometric Pressure VSB - Visibility
WCI - Wind Chill Index E13G22 Wind - East Wind 13 mph/Gusts of 22 mph